Miscellaneous Local Product
Issued by NWS North Platte, NE

Home | Current Version | Previous Version | Graphics & Text | Print | Product List | Glossary On
Versions: 1 2 3 4 5 6 7 8 9 10 11 12 13 14 15 16 17 18 19 20 21 22 23 24 25 26 27 28 29 30 31 32 33 34 35 36 37 38 39 40 41 42 43 44 45 46 47 48 49 50
000
AXUS43 KLBF 162110
MISLBF


WESTERN AND NORTH CENTRAL NEBRASKA HOURLY WEATHER ROUNDUP
NATIONAL WEATHER SERVICE NORTH PLATTE NE
300 PM CST MON JAN 16 2017

NOTE: "FAIR" INDICATES FEW OR NO CLOUDS BELOW 12,000 FEET WITH NO
SIGNIFICANT WEATHER AND/OR OBSTRUCTIONS TO VISIBILITY.

NOTE: STATIONS NOT REPORTING VARIABLES SUCH AS SKY/WEATHER OR
PRESSURE ARE PROVIDED BY RAWS AND APRS NETWORKS AND ARE NOT UNDER
NATIONAL WEATHER SERVICE QUALITY CONTROL.

...OBSERVATIONS IN AND NEAR THE EASTERN PANHANDLE OF NEBRASKA...

CITY           SKY/WX    TMP DP  RH WIND       PRES   REMARKS
PINE RIDGE     SUNNY     31  21  66 W6        30.06F WCI  25
CHADRON        SUNNY     34  18  52 NW14      30.07F WCI  25
ALLIANCE       CLOUDY    38  15  39 N17       30.02S WCI  28
SIDNEY         CLOUDY    36  20  52 MISG      30.02S
CRESCENT LAKE    N/A     35  20  55 N15G22      N/A  WCI  25
$$

...OBSERVATIONS IN NORTHERN NEBRASKA AND FAR SOUTHERN SOUTH DAKOTA...

CITY           SKY/WX    TMP DP  RH WIND       PRES   REMARKS
WINNER         FAIR      32  15  49 NW14      30.03F WCI  22
VALENTINE      CLOUDY    33  13  43 NW17      30.02S WCI  22
THEDFORD       CLOUDY    37  28  67 N18       29.98S WCI  27
AINSWORTH      CLOUDY    35  25  67 NW12      29.99S WCI  27
O`NEILL        CLOUDY    31  28  88 N10       29.98F WCI  22
ORD            CLOUDY    32  28  85 N15       29.94S WCI  22
BROKEN BOW     MIX PCPN  33  29  85 N18       29.94S WCI  22
VALENTINE NWR    N/A     37  20  50 N15         N/A  WCI  28
BUTTE            N/A     31  22  70 NW9         N/A  WCI  23
HALSEY           N/A     34  29  83 NW7         N/A  WCI  28
SARGENT          N/A     31  23  72 MISG        N/A
CHAMBERS         N/A     31  28  88 S3          N/A
EWING            N/A     30  29  95 N7          N/A  WCI  23
$$

...OBSERVATIONS IN SOUTHWEST NEBRASKA AND FAR NORTHEAST COLORADO...

CITY           SKY/WX    TMP DP  RH WIND       PRES   REMARKS
WRAY           CLOUDY    36  30  80 NW17G23   30.00S WCI  25
HOLYOKE        FAIR      37  27  65 NW20G26   30.00S WCI  27
IMPERIAL       CLOUDY    35  28  75 N16       29.98R WCI  25
OGALLALA       CLOUDY    37  29  72 NW14G20   30.00S WCI  29
NORTH PLATTE   CLOUDY    36  30  79 N8        29.98R WCI  30
MCCOOK         LGT SNOW  34  33  96 N14       29.96R FOG     WCI  25
LEXINGTON      DRIZZLE   33  31  91 N16G22    29.94R WCI  23
STAPLETON        N/A     33  30  89 CALM        N/A
GOTHENBURG       N/A     33  29  84 NW9         N/A  WCI  25
CALLAWAY         N/A     32  31  97 CALM        N/A
$$

...OBSERVATIONS IN CENTRAL LINCOLN COUNTY AREA...

CITY           SKY/WX    TMP DP  RH WIND       PRES   REMARKS
N.P. AIRPORT   CLOUDY    36  30  79 N8        29.98R WCI  30
N.P. DOWNTOWN    N/A     34  33  96 NW6         N/A  WCI  29
N.P. SOUTHEAST   N/A     35  31  87 N5          N/A  WCI  31
N.P. HILLCREST   N/A     35  32  89 N8          N/A  WCI  28
$$

...SOME OBSERVATIONS FROM AROUND THE REGION...

CITY           SKY/WX    TMP DP  RH WIND       PRES   REMARKS
LARAMIE        CLOUDY    25  17  72 NE5       30.04F WCI  19
CHEYENNE       CLOUDY    36   4  26 N10       30.03F WCI  28
DENVER         CLOUDY    33  27  78 W9        30.05F WCI  25
AKRON          CLOUDY    34  23  64 NW16      30.02S WCI  24
SCOTTSBLUFF    CLOUDY    41  17  38 NW12      30.04F
RAPID CITY     SUNNY     34  20  56 N20       30.04S WCI  23
BISMARCK       SUNNY     27  16  63 NW6       30.06R WCI  20
PIERRE         CLOUDY    22  13  68 NW17      30.05S WCI   8
SIOUX FALLS    FRZ RAIN  31  27  85 N7        29.98S WCI  24
OMAHA          LGT RAIN  35  31  85 N12       29.89S FOG     WCI  27
GRAND ISLAND   FRZ RAIN N/A N/A N/A N9        29.91S FOG
KANSAS CITY    CLOUDY    49  45  86 S7        29.82S FOG
WICHITA        CLOUDY    39  36  89 W12       29.86R WCI  32
OKLAHOMA CITY  PTSUNNY   48  35  60 W15       29.94R
DALLAS         MOSUNNY   65  48  54 W9        29.97S
AMARILLO       CLOUDY    41  34  76 NW14G25   29.98R
DODGE CITY     CLOUDY    33  32  96 NW9       29.89S FOG     WCI  25
HAYS           CLOUDY    33  31  92 N13       29.90R WCI  24
GOODLAND       CLOUDY    33  32  96 N23G29    29.94R FOG     WCI  21
$$




USA.gov is the U.S. government's official web portal to all federal, state and local government web resources and services.